Hovedside
METAR-TAF:

METAR-TAF

Lufthavner :

Pajala, Sverige

Pajala lufthavn

breddegrad: 67-14-44N, lengdegrad: 023-04-08E, høyde over havet: 165 m

Gjeldene værobservasjon

Denne rapporten ble laget for 42 minutter siden, klokken 21:50 UTC
Flau vind
Temperatur 11°C
Luftfuktighet 87%
Trykk 1018 hPa
Sikt 10 km eller mer

METAR: ESUP 242150Z AUTO 00000KT 9999 NCD 11/09 Q1018

Tid: 00:32 (22:32 UTC)


TAF: fraværende

Værobservasjoner og værvarsel for over 4000 flyplasser (METAR- og TAF-rapporter).

Tilgjengelige stasjoner er representert av de røde og gule prikkene på kartet.

Hold musepekeren over prikken for å se navnet på stasjonen.

Klikk så for å se værobservasjoner og -varsler.

For å forandre kartet kan du klikke på den grønne knappen med svart kryss for å zoome inn, på den grønne knappen med strek for å zoome ut, eller på de grønne pilene for å se tilstøtende kart.


METAR-TAF: